FENGYUN 1C DEB, 31984

Orbit data source: Space-Track

FENGYUN 1C DEB, 31984 is space debris in SSO originally from a launch on Mon, 10 May 1999 UTC launched from the Taiyaun Space Center, China (TSC). Fengyun 1C debris stems from the Chinese weather satellite Fengyun-1C, which was intentionally destroyed by a Chinese anti-satellite missile in 2007. This event dramatically increased the amount of space debris, with thousands of trackable fragments posing hazards to satellites and human spaceflight. The Fengyun 1C debris cloud has become a focal point in discussions about space sustainability and the need for international regulations to prevent the creation of new debris.

Loading next visibility...
Identifier
31984, 1999-025CPM
Orbit
SSO
Country
Flag of CNCN / PRC
Related business
Manufacturer
Unknown
Mission
Spacecraft
Bus & Motor
Unknown
Mass
Unknown
Launch date (UTC)
1999-05-10 (27 years ago)
Launch vehicle
Unknown
Launch site
Taiyaun Space Center, China (TSC)
Object type
Payload
Rocket body
Debris
Shape & HBR
Unknown shape, 0.1 m
Radar Cross Section
Small (<0.1 m²)

Expand to show TLE details & history
Last TLE update: 1 week ago

TLE from 1 week ago
0 FENGYUN 1C DEB
1 31984U 99025CPM 26163.27820452  .00000664  00000-0  30553-3 0  9993
2 31984  98.5577 167.6102 0064451  60.5752 300.1839 14.23264483969551
Epoch: 2026-06-12T06:40Z
TLE epoch observation values (Epoch: 2026-06-12T06:40:36.870Z)
Latitude
-0.00003°
Longitude
166.84664°
Altitude
794.17 km
Speed
7.468 km/s
True Right ascension
11h 10m 26s
True Declination
0° 00' 00"
Sunlit
Object was in daylight at epoch
Visualization orbit readout
Latitude
Unknown
Longitude
Unknown
Altitude
Unknown
Speed
Unknown
Apparent Right ascension
Unknown
Apparent Declination
Unknown
Sunlit
N/A
Visualization observer readout
Local Sidereal Time
22:09:01
Azimuth
Unknown
Elevation
Unknown
Doppler factor
Unknown
Orbital elements
Apogee altitude
857.818 km
Perigee altitude
765.143 km
Semi-major axis
7,189.618 km
Eccentricity
0.00645
Inclination
98.5577°
RAAN
167.6102°
Arg. of periapsis
60.5752°
True anomaly
299.5429°
Mean anomaly
300.1839°
Eccentric anomaly
299.86366°
Mean motion
3.56028 °/min
Orbital period
101.12 mins
BSTAR
0.00030553
Loading maneuver chart data...
Computing Atmospheric mass density...

Documentation

Showing up to 5 results
|